Hourly Data Report for October 01, 2017

All times are specified in Local Standard Time (LST). Add 1 hour to adjust for Daylight Saving Time where and when it is observed.

ARMSTRONG (AUT)
ONTARIO

50°17'37.000" N
88°54'19.000" W
322.50 m
6040325
71841
WYW

Download Data

Hourly Data (October 2017)
Hourly Data Report for October 1, 2017
Temp Definition
°C
Dew Point Temp Definition
°C
Rel Hum Definition
%
Wind Dir Definition
10's deg

Wind Spd Definition
km/h
Visibility Definition
km
Stn Press Definition
kPa
Hmdx Definition


Wind Chill Definition


Weather Definition


TIME
00:00 2.2 1.3 93 13 4   98.12     LegendNANA
01:00 3.4 2.5 94 17 6   98.10     LegendNANA
02:00 2.9 1.9 93 15 4   98.08     LegendNANA
03:00 1.9 0.7 91 11 3   98.04     LegendNANA
04:00 2.6 1.5 93 0 1   98.02     LegendNANA
05:00 4.4 3.4 93 15 3   97.99     LegendNANA
06:00 4.3 3.2 92 15 3   97.96     LegendNANA
07:00 8.0 6.9 93 16 7   97.95     LegendNANA
08:00 8.9 7.4 90 14 5   97.94     LegendNANA
09:00 11.3 9.0 86 15 10   97.95     LegendNANA
10:00 14.0 9.3 73 15 14   97.96     LegendNANA
11:00 14.1 9.2 72 13 19   97.96     LegendNANA
12:00 15.2 9.8 70 15 17   97.97     LegendNANA
13:00 15.4 10.4 72 14 20   97.96     LegendNANA
14:00 16.1 10.0 67 15 21   97.91     LegendNANA
15:00 15.9 9.8 67 15 17   97.86     LegendNANA
16:00 15.5 9.7 69 15 15   97.83     LegendNANA
17:00 14.4 9.5 73 13 13   97.81     LegendNANA
18:00 14.2 7.3 63 14 19   97.80     LegendNANA
19:00 13.4 7.7 68 15 18   97.84     LegendNANA
20:00 12.9 8.1 72 14 19   97.86     LegendNANA
21:00 12.8 8.1 73 15 14   97.87     LegendNANA
22:00 11.9 9.1 83 15 16   97.85     LegendNANA
23:00 12.0 9.7 86 15 19   97.82     LegendNANA

Notes on Data Quality.

Legend

  • E = Estimated
  • M = Missing
  • NA = Not Available
  • ‡ = Partner data that is not subject to review by the National Climate Archives
Date modified: